Year,Month,Day,Hour,Minute,Value (Times are PST for temperature in C)
2020,04,24,00,00,7.50
2020,04,24,00,01,7.50
2020,04,24,00,02,7.50
2020,04,24,00,03,7.40
2020,04,24,00,04,7.40
2020,04,24,00,05,7.40
2020,04,24,00,06,7.40
2020,04,24,00,07,7.30
2020,04,24,00,08,7.30
2020,04,24,00,09,7.30
2020,04,24,00,10,7.30
2020,04,24,00,11,7.30
2020,04,24,00,12,7.20
2020,04,24,00,13,7.20
2020,04,24,00,14,7.20
2020,04,24,00,15,7.20
2020,04,24,00,16,7.10
2020,04,24,00,17,7.10
2020,04,24,00,18,7.00
2020,04,24,00,19,7.00
2020,04,24,00,20,6.90
2020,04,24,00,21,6.90
2020,04,24,00,22,6.90
2020,04,24,00,23,6.80
2020,04,24,00,24,6.80
2020,04,24,00,25,6.80
2020,04,24,00,26,6.80
2020,04,24,00,27,6.80
2020,04,24,00,28,6.70
2020,04,24,00,29,6.70
2020,04,24,00,30,6.70
2020,04,24,00,31,6.70
2020,04,24,00,32,6.60
2020,04,24,00,33,6.60
2020,04,24,00,34,6.60
2020,04,24,00,35,6.50
2020,04,24,00,36,6.50
2020,04,24,00,37,6.40
2020,04,24,00,38,6.40
2020,04,24,00,39,6.40
2020,04,24,00,40,6.30
2020,04,24,00,41,6.30
2020,04,24,00,42,6.30
2020,04,24,00,43,6.30
2020,04,24,00,44,6.30
2020,04,24,00,45,6.30
2020,04,24,00,46,6.20
2020,04,24,00,47,6.20
2020,04,24,00,48,6.20
2020,04,24,00,49,6.20
2020,04,24,00,50,6.20
2020,04,24,00,51,6.10
2020,04,24,00,52,6.10
2020,04,24,00,53,6.10
2020,04,24,00,54,6.10
2020,04,24,00,55,6.10
2020,04,24,00,56,6.10
2020,04,24,00,57,6.00
2020,04,24,00,58,6.00
2020,04,24,00,59,6.00
2020,04,24,01,00,6.00
2020,04,24,01,01,5.90
2020,04,24,01,02,5.90
2020,04,24,01,03,5.90
2020,04,24,01,04,5.90
2020,04,24,01,05,5.90
2020,04,24,01,06,5.90
2020,04,24,01,07,5.80
2020,04,24,01,08,5.80
2020,04,24,01,09,5.80
2020,04,24,01,10,5.80
2020,04,24,01,11,5.80
2020,04,24,01,12,5.80
2020,04,24,01,13,5.80
2020,04,24,01,14,5.80
2020,04,24,01,15,5.80
2020,04,24,01,16,5.80
2020,04,24,01,17,5.80
2020,04,24,01,18,5.80
2020,04,24,01,19,5.80
2020,04,24,01,20,5.70
2020,04,24,01,21,5.70
2020,04,24,01,22,5.70
2020,04,24,01,23,5.70
2020,04,24,01,24,5.70
2020,04,24,01,25,5.60
2020,04,24,01,26,5.60
2020,04,24,01,27,5.60
2020,04,24,01,28,5.60
2020,04,24,01,29,5.60
2020,04,24,01,30,5.60
2020,04,24,01,31,5.60
2020,04,24,01,32,5.60
2020,04,24,01,33,5.60
2020,04,24,01,34,5.60
2020,04,24,01,35,5.60
2020,04,24,01,36,5.50
2020,04,24,01,37,5.50
2020,04,24,01,38,5.50
2020,04,24,01,39,5.50
2020,04,24,01,40,5.50
2020,04,24,01,41,5.50
2020,04,24,01,42,5.50
2020,04,24,01,43,5.50
2020,04,24,01,44,5.40
2020,04,24,01,45,5.40
2020,04,24,01,46,5.40
2020,04,24,01,47,5.40
2020,04,24,01,48,5.40
2020,04,24,01,49,5.30
2020,04,24,01,50,5.30
2020,04,24,01,51,5.30
2020,04,24,01,52,5.40
2020,04,24,01,53,5.40
2020,04,24,01,54,5.40
2020,04,24,01,55,5.40
2020,04,24,01,56,5.30
2020,04,24,01,57,5.30
2020,04,24,01,58,5.30
2020,04,24,01,59,5.30
2020,04,24,02,00,5.30
2020,04,24,02,01,5.30
2020,04,24,02,02,5.30
2020,04,24,02,03,5.30
2020,04,24,02,04,5.30
2020,04,24,02,05,5.30
2020,04,24,02,06,5.30
2020,04,24,02,07,5.30
2020,04,24,02,08,5.30
2020,04,24,02,09,5.30
2020,04,24,02,10,5.30
2020,04,24,02,11,5.30
2020,04,24,02,12,5.30
2020,04,24,02,13,5.30
2020,04,24,02,14,5.30
2020,04,24,02,15,5.20
2020,04,24,02,16,5.20
2020,04,24,02,17,5.20
2020,04,24,02,18,5.20
2020,04,24,02,19,5.20
2020,04,24,02,20,5.10
2020,04,24,02,21,5.10
2020,04,24,02,22,5.10
2020,04,24,02,23,5.00
2020,04,24,02,24,5.00
2020,04,24,02,25,5.00
2020,04,24,02,26,4.90
2020,04,24,02,27,4.90
2020,04,24,02,28,4.90
2020,04,24,02,29,4.90
2020,04,24,02,30,4.90
2020,04,24,02,31,4.90
2020,04,24,02,32,4.90
2020,04,24,02,33,4.90
2020,04,24,02,34,4.90
2020,04,24,02,35,4.90
2020,04,24,02,36,4.90
2020,04,24,02,37,4.90
2020,04,24,02,38,4.90
2020,04,24,02,39,4.90
2020,04,24,02,40,4.90
2020,04,24,02,41,4.90
2020,04,24,02,42,4.90
2020,04,24,02,43,4.90
2020,04,24,02,44,4.90
2020,04,24,02,45,4.90
2020,04,24,02,46,4.90
2020,04,24,02,47,4.90
2020,04,24,02,48,4.90
2020,04,24,02,49,4.90
2020,04,24,02,50,4.90
2020,04,24,02,51,4.90
2020,04,24,02,52,4.80
2020,04,24,02,53,4.80
2020,04,24,02,54,4.80
2020,04,24,02,55,4.80
2020,04,24,02,56,4.80
2020,04,24,02,57,4.80
2020,04,24,02,58,4.70
2020,04,24,02,59,4.70
2020,04,24,03,00,4.70
2020,04,24,03,01,4.70
2020,04,24,03,02,4.60
2020,04,24,03,03,4.60
2020,04,24,03,04,4.60
2020,04,24,03,05,4.60
2020,04,24,03,06,4.60
2020,04,24,03,07,4.60
2020,04,24,03,08,4.60
2020,04,24,03,09,4.60
2020,04,24,03,10,4.60
2020,04,24,03,11,4.60
2020,04,24,03,12,4.60
2020,04,24,03,13,4.50
2020,04,24,03,14,4.50
2020,04,24,03,15,4.50
2020,04,24,03,16,4.50
2020,04,24,03,17,4.50
2020,04,24,03,18,4.50
2020,04,24,03,19,4.60
2020,04,24,03,20,4.60
2020,04,24,03,21,4.60
2020,04,24,03,22,4.60
2020,04,24,03,23,4.60
2020,04,24,03,24,4.60
2020,04,24,03,25,4.50
2020,04,24,03,26,4.50
2020,04,24,03,27,4.50
2020,04,24,03,28,4.50
2020,04,24,03,29,4.40
2020,04,24,03,30,4.40
2020,04,24,03,31,4.40
2020,04,24,03,32,4.40
2020,04,24,03,33,4.30
2020,04,24,03,34,4.30
2020,04,24,03,35,4.30
2020,04,24,03,36,4.30
2020,04,24,03,37,4.30
2020,04,24,03,38,4.30
2020,04,24,03,39,4.30
2020,04,24,03,40,4.30
2020,04,24,03,41,4.20
2020,04,24,03,42,4.20
2020,04,24,03,43,4.20
2020,04,24,03,44,4.20
2020,04,24,03,45,4.20
2020,04,24,03,46,4.20
2020,04,24,03,47,4.20
2020,04,24,03,48,4.20
2020,04,24,03,49,4.20
2020,04,24,03,50,4.20
2020,04,24,03,51,4.20
2020,04,24,03,52,4.20
2020,04,24,03,53,4.20
2020,04,24,03,54,4.20
2020,04,24,03,55,4.20
2020,04,24,03,56,4.20
2020,04,24,03,57,4.20
2020,04,24,03,58,4.30
2020,04,24,03,59,4.30
2020,04,24,04,00,4.30
2020,04,24,04,01,4.30
2020,04,24,04,02,4.30
2020,04,24,04,03,4.30
2020,04,24,04,04,4.30
2020,04,24,04,05,4.30
2020,04,24,04,06,4.30
2020,04,24,04,07,4.20
2020,04,24,04,08,4.20
2020,04,24,04,09,4.20
2020,04,24,04,10,4.20
2020,04,24,04,11,4.20
2020,04,24,04,12,4.20
2020,04,24,04,13,4.20
2020,04,24,04,14,4.20
2020,04,24,04,15,4.20
2020,04,24,04,16,4.20
2020,04,24,04,17,4.20
2020,04,24,04,18,4.20
2020,04,24,04,19,4.20
2020,04,24,04,20,4.30
2020,04,24,04,21,4.30
2020,04,24,04,22,4.30
2020,04,24,04,23,4.30
2020,04,24,04,24,4.30
2020,04,24,04,25,4.40
2020,04,24,04,26,4.50
2020,04,24,04,27,4.50
2020,04,24,04,28,4.50
2020,04,24,04,29,4.60
2020,04,24,04,30,4.60
2020,04,24,04,31,4.70
2020,04,24,04,32,4.70
2020,04,24,04,33,4.70
2020,04,24,04,34,4.70
2020,04,24,04,35,4.80
2020,04,24,04,36,4.80
2020,04,24,04,37,4.80
2020,04,24,04,38,4.80
2020,04,24,04,39,4.80
2020,04,24,04,40,4.80
2020,04,24,04,41,4.80
2020,04,24,04,42,4.80
2020,04,24,04,43,4.90
2020,04,24,04,44,4.90
2020,04,24,04,45,5.00
2020,04,24,04,46,5.00
2020,04,24,04,47,5.10
2020,04,24,04,48,5.20
2020,04,24,04,49,5.30
2020,04,24,04,50,5.40
2020,04,24,04,51,5.50
2020,04,24,04,52,5.60
2020,04,24,04,53,5.60
2020,04,24,04,54,5.70
2020,04,24,04,55,5.70
2020,04,24,04,56,5.80
2020,04,24,04,57,5.80
2020,04,24,04,58,5.80
2020,04,24,04,59,5.80
2020,04,24,05,00,5.80
2020,04,24,05,01,5.80
2020,04,24,05,02,5.80
2020,04,24,05,03,5.80
2020,04,24,05,04,5.80
2020,04,24,05,05,5.80
2020,04,24,05,06,5.80
2020,04,24,05,07,5.90
2020,04,24,05,08,5.90
2020,04,24,05,09,5.90
2020,04,24,05,10,5.90
2020,04,24,05,11,5.90
2020,04,24,05,12,5.90
2020,04,24,05,13,5.90
2020,04,24,05,14,5.90
2020,04,24,05,15,5.90
2020,04,24,05,16,5.90
2020,04,24,05,17,5.90
2020,04,24,05,18,5.90
2020,04,24,05,19,5.90
2020,04,24,05,20,5.90
2020,04,24,05,21,5.90
2020,04,24,05,22,5.90
2020,04,24,05,23,5.90
2020,04,24,05,24,5.90
2020,04,24,05,25,5.90
2020,04,24,05,26,5.90
2020,04,24,05,27,5.80
2020,04,24,05,28,5.80
2020,04,24,05,29,5.80
2020,04,24,05,30,5.80
2020,04,24,05,31,5.80
2020,04,24,05,32,5.80
2020,04,24,05,33,5.80
2020,04,24,05,34,5.80
2020,04,24,05,35,5.80
2020,04,24,05,36,5.80
2020,04,24,05,37,5.80
2020,04,24,05,38,5.80
2020,04,24,05,39,5.80
2020,04,24,05,40,5.80
2020,04,24,05,41,5.70
2020,04,24,05,42,5.70
2020,04,24,05,43,5.70
2020,04,24,05,44,5.70
2020,04,24,05,45,5.70
2020,04,24,05,46,5.70
2020,04,24,05,47,5.70
2020,04,24,05,48,5.70
2020,04,24,05,49,5.70
2020,04,24,05,50,5.70
2020,04,24,05,51,5.60
2020,04,24,05,52,5.60
2020,04,24,05,53,5.60
2020,04,24,05,54,5.60
2020,04,24,05,55,5.60
2020,04,24,05,56,5.60
2020,04,24,05,57,5.60
2020,04,24,05,58,5.60
2020,04,24,05,59,5.60
2020,04,24,06,00,5.60
2020,04,24,06,01,5.60
2020,04,24,06,02,5.60
2020,04,24,06,03,5.60
2020,04,24,06,04,5.60
2020,04,24,06,05,5.60
2020,04,24,06,06,5.60
2020,04,24,06,07,5.60
2020,04,24,06,08,5.60
2020,04,24,06,09,5.60
2020,04,24,06,10,5.60
2020,04,24,06,11,5.50
2020,04,24,06,12,5.50
2020,04,24,06,13,5.50
2020,04,24,06,14,5.50
2020,04,24,06,15,5.50
2020,04,24,06,16,5.40
2020,04,24,06,17,5.40
2020,04,24,06,18,5.40
2020,04,24,06,19,5.40
2020,04,24,06,20,5.40
2020,04,24,06,21,5.40
2020,04,24,06,22,5.30
2020,04,24,06,23,5.30
2020,04,24,06,24,5.30
2020,04,24,06,25,5.30
2020,04,24,06,26,5.30
2020,04,24,06,27,5.30
2020,04,24,06,28,5.30
2020,04,24,06,29,5.30
2020,04,24,06,30,5.30
2020,04,24,06,31,5.30
2020,04,24,06,32,5.30
2020,04,24,06,33,5.30
2020,04,24,06,34,5.30
2020,04,24,06,35,5.30
2020,04,24,06,36,5.30
2020,04,24,06,37,5.30
2020,04,24,06,38,5.30
2020,04,24,06,39,5.30
2020,04,24,06,40,5.30
2020,04,24,06,41,5.30
2020,04,24,06,42,5.30
2020,04,24,06,43,5.30
2020,04,24,06,44,5.40
2020,04,24,06,45,5.40
2020,04,24,06,46,5.40
2020,04,24,06,47,5.40
2020,04,24,06,48,5.40
2020,04,24,06,49,5.40
2020,04,24,06,50,5.40
2020,04,24,06,51,5.50
2020,04,24,06,52,5.50
2020,04,24,06,53,5.50
2020,04,24,06,54,5.60
2020,04,24,06,55,5.60
2020,04,24,06,56,5.60
2020,04,24,06,57,5.60
2020,04,24,06,58,5.60
2020,04,24,06,59,5.60
2020,04,24,07,00,5.70
2020,04,24,07,01,5.70
2020,04,24,07,02,5.70
2020,04,24,07,03,5.70
2020,04,24,07,04,5.80
2020,04,24,07,05,5.80
2020,04,24,07,06,5.80
2020,04,24,07,07,5.80
2020,04,24,07,08,5.90
2020,04,24,07,09,5.90
2020,04,24,07,10,5.90
2020,04,24,07,11,5.90
2020,04,24,07,12,5.90
2020,04,24,07,13,6.00
2020,04,24,07,14,6.00
2020,04,24,07,15,6.00
2020,04,24,07,16,6.10
2020,04,24,07,17,6.10
2020,04,24,07,18,6.10
2020,04,24,07,19,6.10
2020,04,24,07,20,6.10
2020,04,24,07,21,6.10
2020,04,24,07,22,6.10
2020,04,24,07,23,6.10
2020,04,24,07,24,6.10
2020,04,24,07,25,6.10
2020,04,24,07,26,6.10
2020,04,24,07,27,6.10
2020,04,24,07,28,6.10
2020,04,24,07,29,6.20
2020,04,24,07,30,6.20
2020,04,24,07,31,6.20
2020,04,24,07,32,6.20
2020,04,24,07,33,6.20
2020,04,24,07,34,6.30
2020,04,24,07,35,6.30
2020,04,24,07,36,6.30
2020,04,24,07,37,6.30
2020,04,24,07,38,6.30
2020,04,24,07,39,6.30
2020,04,24,07,40,6.30
2020,04,24,07,41,6.40
2020,04,24,07,42,6.40
2020,04,24,07,43,6.40
2020,04,24,07,44,6.50
2020,04,24,07,45,6.50
2020,04,24,07,46,6.60
2020,04,24,07,47,6.60
2020,04,24,07,48,6.70
2020,04,24,07,49,6.70
2020,04,24,07,50,6.80
2020,04,24,07,51,6.80
2020,04,24,07,52,6.80
2020,04,24,07,53,6.80
2020,04,24,07,54,6.90
2020,04,24,07,55,6.90
2020,04,24,07,56,7.00
2020,04,24,07,57,7.00
2020,04,24,07,58,7.00
2020,04,24,07,59,7.10
2020,04,24,08,00,7.10
2020,04,24,08,01,7.10
2020,04,24,08,02,7.20
2020,04,24,08,03,7.20
2020,04,24,08,04,7.20
2020,04,24,08,05,7.30
2020,04,24,08,06,7.30
2020,04,24,08,07,7.30
2020,04,24,08,08,7.40
2020,04,24,08,09,7.40
2020,04,24,08,10,7.50
2020,04,24,08,11,7.50
2020,04,24,08,12,7.60
2020,04,24,08,13,7.60
2020,04,24,08,14,7.70
2020,04,24,08,15,7.70
2020,04,24,08,16,7.70
2020,04,24,08,17,7.80
2020,04,24,08,18,7.80
2020,04,24,08,19,7.90
2020,04,24,08,20,7.90
2020,04,24,08,21,7.90
2020,04,24,08,22,7.90
2020,04,24,08,23,8.00
2020,04,24,08,24,8.00
2020,04,24,08,25,8.00
2020,04,24,08,26,8.10
2020,04,24,08,27,8.10
2020,04,24,08,28,8.10
2020,04,24,08,29,8.20
2020,04,24,08,30,8.20
2020,04,24,08,31,8.20
2020,04,24,08,32,8.20
2020,04,24,08,33,8.30
2020,04,24,08,34,8.30
2020,04,24,08,35,8.30
2020,04,24,08,36,8.40
2020,04,24,08,37,8.40
2020,04,24,08,38,8.40
2020,04,24,08,39,8.40
2020,04,24,08,40,8.50
2020,04,24,08,41,8.50
2020,04,24,08,42,8.60
2020,04,24,08,43,8.60
2020,04,24,08,44,8.60
2020,04,24,08,45,8.70
2020,04,24,08,46,8.70
2020,04,24,08,47,8.70
2020,04,24,08,48,8.80
2020,04,24,08,49,8.80
2020,04,24,08,50,8.80
2020,04,24,08,51,8.80
2020,04,24,08,52,8.80
2020,04,24,08,53,8.90
2020,04,24,08,54,8.90
2020,04,24,08,55,8.90
2020,04,24,08,56,8.90
2020,04,24,08,57,9.00
2020,04,24,08,58,9.00
2020,04,24,08,59,9.00
2020,04,24,09,00,9.00
2020,04,24,09,01,9.00
2020,04,24,09,02,9.10
2020,04,24,09,03,9.10
2020,04,24,09,04,9.10
2020,04,24,09,05,9.20
2020,04,24,09,06,9.20
2020,04,24,09,07,9.30
2020,04,24,09,08,9.30
2020,04,24,09,09,9.30
2020,04,24,09,10,9.40
2020,04,24,09,11,9.40
2020,04,24,09,12,9.50
2020,04,24,09,13,9.50
2020,04,24,09,14,9.60
2020,04,24,09,15,9.60
2020,04,24,09,16,9.70
2020,04,24,09,17,9.70
2020,04,24,09,18,9.70
2020,04,24,09,19,9.80
2020,04,24,09,20,9.80
2020,04,24,09,21,9.80
2020,04,24,09,22,9.80
2020,04,24,09,23,9.80
2020,04,24,09,24,9.80
2020,04,24,09,25,9.80
2020,04,24,09,26,9.80
2020,04,24,09,27,9.90
2020,04,24,09,28,9.90
2020,04,24,09,29,9.90
2020,04,24,09,30,9.90
2020,04,24,09,31,9.90
2020,04,24,09,32,9.90
2020,04,24,09,33,9.90
2020,04,24,09,34,9.90
2020,04,24,09,35,9.90
2020,04,24,09,36,9.90
2020,04,24,09,37,9.90
2020,04,24,09,38,9.90
2020,04,24,09,39,9.90
2020,04,24,09,40,9.90
2020,04,24,09,41,9.90
2020,04,24,09,42,9.90
2020,04,24,09,43,9.90
2020,04,24,09,44,10.00
2020,04,24,09,45,10.00
2020,04,24,09,46,10.00
2020,04,24,09,47,10.00
2020,04,24,09,48,10.00
2020,04,24,09,49,10.00
2020,04,24,09,50,10.10
2020,04,24,09,51,10.10
2020,04,24,09,52,10.10
2020,04,24,09,53,10.10
2020,04,24,09,54,10.10
2020,04,24,09,55,10.10
2020,04,24,09,56,10.10
2020,04,24,09,57,10.10
2020,04,24,09,58,10.20
2020,04,24,09,59,10.20
2020,04,24,10,00,10.20
2020,04,24,10,01,10.20
2020,04,24,10,02,10.20
2020,04,24,10,03,10.30
2020,04,24,10,04,10.30
2020,04,24,10,05,10.30
2020,04,24,10,06,10.30
2020,04,24,10,07,10.30
2020,04,24,10,08,10.30
2020,04,24,10,09,10.30
2020,04,24,10,10,10.30
2020,04,24,10,11,10.40
2020,04,24,10,12,10.40
2020,04,24,10,13,10.40
2020,04,24,10,14,10.40
2020,04,24,10,15,10.50
2020,04,24,10,16,10.50
2020,04,24,10,17,10.50
2020,04,24,10,18,10.50
2020,04,24,10,19,10.60
2020,04,24,10,20,10.60
2020,04,24,10,21,10.60
2020,04,24,10,22,10.60
2020,04,24,10,23,10.70
2020,04,24,10,24,10.70
2020,04,24,10,25,10.80
2020,04,24,10,26,10.80
2020,04,24,10,27,10.80
2020,04,24,10,28,10.80
2020,04,24,10,29,10.90
2020,04,24,10,30,10.90
2020,04,24,10,31,10.90
2020,04,24,10,32,10.90
2020,04,24,10,33,10.80
2020,04,24,10,34,10.80
2020,04,24,10,35,10.80
2020,04,24,10,36,10.80
2020,04,24,10,37,10.80
2020,04,24,10,38,10.80
2020,04,24,10,39,10.80
2020,04,24,10,40,10.90
2020,04,24,10,41,10.90
2020,04,24,10,42,10.90
2020,04,24,10,43,10.90
2020,04,24,10,44,10.90
2020,04,24,10,45,10.90
2020,04,24,10,46,10.90
2020,04,24,10,47,10.90
2020,04,24,10,48,10.90
2020,04,24,10,49,10.90
2020,04,24,10,50,11.00
2020,04,24,10,51,11.00
2020,04,24,10,52,11.10
2020,04,24,10,53,11.10
2020,04,24,10,54,11.10
2020,04,24,10,55,11.20
2020,04,24,10,56,11.20
2020,04,24,10,57,11.20
2020,04,24,10,58,11.20
2020,04,24,10,59,11.20
2020,04,24,11,00,11.20
2020,04,24,11,01,11.20
2020,04,24,11,02,11.20
2020,04,24,11,03,11.20
2020,04,24,11,04,11.30
2020,04,24,11,05,11.30
2020,04,24,11,06,11.30
2020,04,24,11,07,11.30
2020,04,24,11,08,11.30
2020,04,24,11,09,11.30
2020,04,24,11,10,11.30
2020,04,24,11,11,11.30
2020,04,24,11,12,11.30
2020,04,24,11,13,11.30
2020,04,24,11,14,11.40
2020,04,24,11,15,11.40
2020,04,24,11,16,11.40
2020,04,24,11,17,11.40
2020,04,24,11,18,11.40
2020,04,24,11,19,11.40
2020,04,24,11,20,11.40
2020,04,24,11,21,11.40
2020,04,24,11,22,11.40
2020,04,24,11,23,11.40
2020,04,24,11,24,11.40
2020,04,24,11,25,11.40
2020,04,24,11,26,11.40
2020,04,24,11,27,11.50
2020,04,24,11,28,11.50
2020,04,24,11,29,11.50
2020,04,24,11,30,11.50
2020,04,24,11,31,11.50
2020,04,24,11,32,11.50
2020,04,24,11,33,11.50
2020,04,24,11,34,11.50
2020,04,24,11,35,11.50
2020,04,24,11,36,11.50
2020,04,24,11,37,11.50
2020,04,24,11,38,11.50
2020,04,24,11,39,11.50
2020,04,24,11,40,11.50
2020,04,24,11,41,11.50
2020,04,24,11,42,11.50
2020,04,24,11,43,11.50
2020,04,24,11,44,11.50
2020,04,24,11,45,11.50
2020,04,24,11,46,11.50
2020,04,24,11,47,11.50
2020,04,24,11,48,11.50
2020,04,24,11,49,11.50
2020,04,24,11,50,11.50
2020,04,24,11,51,11.50
2020,04,24,11,52,11.50
2020,04,24,11,53,11.50
2020,04,24,11,54,11.40
2020,04,24,11,55,11.40
2020,04,24,11,56,11.40
2020,04,24,11,57,11.40
2020,04,24,11,58,11.40
2020,04,24,11,59,11.40
2020,04,24,12,00,11.30
2020,04,24,12,01,11.30
2020,04,24,12,02,11.30
2020,04,24,12,03,11.30
2020,04,24,12,04,11.30
2020,04,24,12,05,11.30
2020,04,24,12,06,11.30
2020,04,24,12,07,11.30
2020,04,24,12,08,11.20
2020,04,24,12,09,11.20
2020,04,24,12,10,11.20
2020,04,24,12,11,11.20
2020,04,24,12,12,11.20
2020,04,24,12,13,11.20
2020,04,24,12,14,11.20
2020,04,24,12,15,11.20
2020,04,24,12,16,11.20
2020,04,24,12,17,11.20
2020,04,24,12,18,11.30
2020,04,24,12,19,11.30
2020,04,24,12,20,11.30
2020,04,24,12,21,11.30
2020,04,24,12,22,11.30
2020,04,24,12,23,11.30
2020,04,24,12,24,11.30
2020,04,24,12,25,11.30
2020,04,24,12,26,11.30
2020,04,24,12,27,11.30
2020,04,24,12,28,11.30
2020,04,24,12,29,11.30
2020,04,24,12,30,11.30
2020,04,24,12,31,11.30
2020,04,24,12,32,11.30
2020,04,24,12,33,11.30
2020,04,24,12,34,11.30
2020,04,24,12,35,11.30
2020,04,24,12,36,11.40
2020,04,24,12,37,11.40
2020,04,24,12,38,11.40
2020,04,24,12,39,11.40
2020,04,24,12,40,11.40
2020,04,24,12,41,11.40
2020,04,24,12,42,11.40
2020,04,24,12,43,11.40
2020,04,24,12,44,11.40
2020,04,24,12,45,11.50
2020,04,24,12,46,11.50
2020,04,24,12,47,11.60
2020,04,24,12,48,11.60
2020,04,24,12,49,11.60
2020,04,24,12,50,11.70
2020,04,24,12,51,11.70
2020,04,24,12,52,11.70
2020,04,24,12,53,11.70
2020,04,24,12,54,11.70
2020,04,24,12,55,11.70
2020,04,24,12,56,11.70
2020,04,24,12,57,11.80
2020,04,24,12,58,11.80
2020,04,24,12,59,11.80
2020,04,24,13,00,11.80
2020,04,24,13,01,11.80
2020,04,24,13,02,11.80
2020,04,24,13,03,11.70
2020,04,24,13,04,11.70
2020,04,24,13,05,11.70
2020,04,24,13,06,11.70
2020,04,24,13,07,11.80
2020,04,24,13,08,11.80
2020,04,24,13,09,11.80
2020,04,24,13,10,11.80
2020,04,24,13,11,11.80
2020,04,24,13,12,11.80
2020,04,24,13,13,11.80
2020,04,24,13,14,11.80
2020,04,24,13,15,11.80
2020,04,24,13,16,11.80
2020,04,24,13,17,11.80
2020,04,24,13,18,11.90
2020,04,24,13,19,11.90
2020,04,24,13,20,11.90
2020,04,24,13,21,11.90
2020,04,24,13,22,11.90
2020,04,24,13,23,11.90
2020,04,24,13,24,11.90
2020,04,24,13,25,11.90
2020,04,24,13,26,12.00
2020,04,24,13,27,12.00
2020,04,24,13,28,12.00
2020,04,24,13,29,12.00
2020,04,24,13,30,12.00
2020,04,24,13,31,12.00
2020,04,24,13,32,12.10
2020,04,24,13,33,12.10
2020,04,24,13,34,12.10
2020,04,24,13,35,12.10
2020,04,24,13,36,12.10
2020,04,24,13,37,12.10
2020,04,24,13,38,12.20
2020,04,24,13,39,12.20
2020,04,24,13,40,12.20
2020,04,24,13,41,12.20
2020,04,24,13,42,12.30
2020,04,24,13,43,12.40
2020,04,24,13,44,12.40
2020,04,24,13,45,12.40
2020,04,24,13,46,12.50
2020,04,24,13,47,12.50
2020,04,24,13,48,12.60
2020,04,24,13,49,12.70
2020,04,24,13,50,12.70
2020,04,24,13,51,12.90
2020,04,24,13,52,13.00
2020,04,24,13,53,13.10
2020,04,24,13,54,13.10
2020,04,24,13,55,13.00
2020,04,24,13,56,13.00
2020,04,24,13,57,12.90
2020,04,24,13,58,12.90
2020,04,24,13,59,12.90
2020,04,24,14,00,12.90
2020,04,24,14,01,12.80
2020,04,24,14,02,12.80
2020,04,24,14,03,12.80
2020,04,24,14,04,12.80
2020,04,24,14,05,12.80
2020,04,24,14,06,12.80
2020,04,24,14,07,12.80
2020,04,24,14,08,12.80
2020,04,24,14,09,12.80
2020,04,24,14,10,12.80
2020,04,24,14,11,12.80
2020,04,24,14,12,12.80
2020,04,24,14,13,12.80
2020,04,24,14,14,12.90
2020,04,24,14,15,12.90
2020,04,24,14,16,13.00
2020,04,24,14,17,13.10
2020,04,24,14,18,13.20
2020,04,24,14,19,13.30
2020,04,24,14,20,13.30
2020,04,24,14,21,13.40
2020,04,24,14,22,13.40
2020,04,24,14,23,13.40
2020,04,24,14,24,13.40
2020,04,24,14,25,13.30
2020,04,24,14,26,13.30
2020,04,24,14,27,13.20
2020,04,24,14,28,13.20
2020,04,24,14,29,13.20
2020,04,24,14,30,13.20
2020,04,24,14,31,13.20
2020,04,24,14,32,13.20
2020,04,24,14,33,13.30
2020,04,24,14,34,13.30
2020,04,24,14,35,13.30
2020,04,24,14,36,13.30
2020,04,24,14,37,13.40
2020,04,24,14,38,13.40
2020,04,24,14,39,13.40
2020,04,24,14,40,13.40
2020,04,24,14,41,13.40
2020,04,24,14,42,13.40
2020,04,24,14,43,13.50
2020,04,24,14,44,13.50
2020,04,24,14,45,13.60
2020,04,24,14,46,13.70
2020,04,24,14,47,13.70
2020,04,24,14,48,13.70
2020,04,24,14,49,13.70
2020,04,24,14,50,13.70
2020,04,24,14,51,13.60
2020,04,24,14,52,13.60
2020,04,24,14,53,13.60
2020,04,24,14,54,13.60
2020,04,24,14,55,13.60
2020,04,24,14,56,13.60
2020,04,24,14,57,13.70
2020,04,24,14,58,13.60
2020,04,24,14,59,13.60
2020,04,24,15,00,13.60
2020,04,24,15,01,13.50
2020,04,24,15,02,13.50
2020,04,24,15,03,13.40
2020,04,24,15,04,13.40
2020,04,24,15,05,13.40
2020,04,24,15,06,13.40
2020,04,24,15,07,13.40
2020,04,24,15,08,13.40
2020,04,24,15,09,13.40
2020,04,24,15,10,13.40
2020,04,24,15,11,13.50
2020,04,24,15,12,13.50
2020,04,24,15,13,13.60
2020,04,24,15,14,13.70
2020,04,24,15,15,13.80
2020,04,24,15,16,13.80
2020,04,24,15,17,13.70
2020,04,24,15,18,13.70
2020,04,24,15,19,13.60
2020,04,24,15,20,13.60
2020,04,24,15,21,13.50
2020,04,24,15,22,13.50
2020,04,24,15,23,13.40
2020,04,24,15,24,13.40
2020,04,24,15,25,13.40
2020,04,24,15,26,13.50
2020,04,24,15,27,13.50
2020,04,24,15,28,13.50
2020,04,24,15,29,13.50
2020,04,24,15,30,13.50
2020,04,24,15,31,13.50
2020,04,24,15,32,13.50
2020,04,24,15,33,13.60
2020,04,24,15,34,13.60
2020,04,24,15,35,13.60
2020,04,24,15,36,13.70
2020,04,24,15,37,13.80
2020,04,24,15,38,13.90
2020,04,24,15,39,13.90
2020,04,24,15,40,13.90
2020,04,24,15,41,14.00
2020,04,24,15,42,14.00
2020,04,24,15,43,14.00
2020,04,24,15,44,14.00
2020,04,24,15,45,14.10
2020,04,24,15,46,14.10
2020,04,24,15,47,14.10
2020,04,24,15,48,14.10
2020,04,24,15,49,14.10
2020,04,24,15,50,14.10
2020,04,24,15,51,14.10
2020,04,24,15,52,14.10
2020,04,24,15,53,14.00
2020,04,24,15,54,14.00
2020,04,24,15,55,14.00
2020,04,24,15,56,13.90
2020,04,24,15,57,13.90
2020,04,24,15,58,13.90
2020,04,24,15,59,13.90
2020,04,24,16,00,13.90
2020,04,24,16,01,13.90
2020,04,24,16,02,13.90
2020,04,24,16,03,13.90
2020,04,24,16,04,13.90
2020,04,24,16,05,13.90
2020,04,24,16,06,13.90
2020,04,24,16,07,13.90
2020,04,24,16,08,14.00
2020,04,24,16,09,14.00
2020,04,24,16,10,14.00
2020,04,24,16,11,14.10
2020,04,24,16,12,14.10
2020,04,24,16,13,14.10
2020,04,24,16,14,14.10
2020,04,24,16,15,14.10
2020,04,24,16,16,14.10
2020,04,24,16,17,14.10
2020,04,24,16,18,14.00
2020,04,24,16,19,14.00
2020,04,24,16,20,14.10
2020,04,24,16,21,14.10
2020,04,24,16,22,14.10
2020,04,24,16,23,14.20
2020,04,24,16,24,14.10
2020,04,24,16,25,14.10
2020,04,24,16,26,14.10
2020,04,24,16,27,14.20
2020,04,24,16,28,14.20
2020,04,24,16,29,14.20
2020,04,24,16,30,14.20
2020,04,24,16,31,14.20
2020,04,24,16,32,14.20
2020,04,24,16,33,14.20
2020,04,24,16,34,14.20
2020,04,24,16,35,14.20
2020,04,24,16,36,14.20
2020,04,24,16,37,14.20
2020,04,24,16,38,14.20
2020,04,24,16,39,14.20
2020,04,24,16,40,14.10
2020,04,24,16,41,14.10
2020,04,24,16,42,14.10
2020,04,24,16,43,14.00
2020,04,24,16,44,14.00
2020,04,24,16,45,14.00
2020,04,24,16,46,14.00
2020,04,24,16,47,14.00
2020,04,24,16,48,14.00
2020,04,24,16,49,14.00
2020,04,24,16,50,14.10
2020,04,24,16,51,14.10
2020,04,24,16,52,14.20
2020,04,24,16,53,14.20
2020,04,24,16,54,14.20
2020,04,24,16,55,14.20
2020,04,24,16,56,14.30
2020,04,24,16,57,14.30
2020,04,24,16,58,14.30
2020,04,24,16,59,14.30
2020,04,24,17,00,14.30
2020,04,24,17,01,14.30
2020,04,24,17,02,14.30
2020,04,24,17,03,14.30
2020,04,24,17,04,14.30
2020,04,24,17,05,14.40
2020,04,24,17,06,14.40
2020,04,24,17,07,14.30
2020,04,24,17,08,14.30
2020,04,24,17,09,14.20
2020,04,24,17,10,14.20
2020,04,24,17,11,14.10
2020,04,24,17,12,14.10
2020,04,24,17,13,14.10
2020,04,24,17,14,14.00
2020,04,24,17,15,14.00
2020,04,24,17,16,14.00
2020,04,24,17,17,14.00
2020,04,24,17,18,14.00
2020,04,24,17,19,14.00
2020,04,24,17,20,14.00
2020,04,24,17,21,14.00
2020,04,24,17,22,14.00
2020,04,24,17,23,14.00
2020,04,24,17,24,14.10
2020,04,24,17,25,14.10
2020,04,24,17,26,14.00
2020,04,24,17,27,14.00
2020,04,24,17,28,14.00
2020,04,24,17,29,14.00
2020,04,24,17,30,14.00
2020,04,24,17,31,14.00
2020,04,24,17,32,14.10
2020,04,24,17,33,14.10
2020,04,24,17,34,14.10
2020,04,24,17,35,14.10
2020,04,24,17,36,14.10
2020,04,24,17,37,14.10
2020,04,24,17,38,14.10
2020,04,24,17,39,14.10
2020,04,24,17,40,14.10
2020,04,24,17,41,14.10
2020,04,24,17,42,14.10
2020,04,24,17,43,14.20
2020,04,24,17,44,14.20